User: anonymous
Location: Muenchen
(48.1800°N, 11.5800°E)
Time: 12:00:13
(UTC+02:00)
Language:

Cosmos 2233 Rocket - Orbit

View from above orbital plane
View from above orbital plane
View from above satellite
View from above satellite

Ground track
Ground track

The orbit data is extracted from the following two-line orbital elements,

1 22488U 93008B   14105.88343873  .00000088  00000-0  73067-4 0  8395
2 22488 082.9451 220.3341 0024728 228.2694 249.9480 13.77612717 64778
Epoch (UTC): 15 April 2014 21:12:09
Eccentricity: 0.0024728
inclination: 82.9451°
perigee height: 954 km
apogee height: 990 km
right ascension of ascending node: 220.3341°
argument of perigee: 228.2694°
revolutions per day: 13.77612717
mean anomaly at epoch: 249.9480°
orbit number at epoch: 6477

The dashed part of the orbit path shows where the satellite is in the earth's shadow,  

DLR